Дата Пункты Температура Давл., мм. Влажн., % Ветер Погодные явления
Воздуха Воды Направл. Скорость
13.11.16 11:00 Одесса 2.0 10.0 753 89 З 8 23 часа
13.11.16 08:00 Одесса 2.0 10.0 752 86 З 4 20 часов
13.11.16 05:00 Одесса 5.0 10.0 751 93 Пд-З 3 17 часов
13.11.16 02:00 Одесса 7.0 10.0 750 80 Пд-З 4 14 часов
13.11.16 11:00 Одесса 11.0 10.0 750 77 Пд-З 2 11 часов
13.11.16 08:00 Одесса 11.0 10.0 750 95 Пд 9 08 часов
13.11.16 05:00 Одесса 9.0 10.0 752 95 С 11 05 часов
13.11.16 02:00 Одесса 8.0 10.0 756 93 С 11 02 часа
12.11.16 11:00 Одесса 10.0 10.0 759 93 Пд-С 10 23 часа
12.11.16 08:00 Одесса 11.0 10.0 761 90 Пд-С 7 20 часов
12.11.16 05:00 Одесса 10.0 10.0 762 91 Пд-С 4 17 часов
12.11.16 02:00 Одесса 10.0 10.0 764 77 Пд-С 5 14 часов
12.11.16 11:00 Одесса 10.0 9.0 766 74 Пд-С 6 11 часов
12.11.16 08:00 Одесса 9.0 9.0 765 77 Пд-С 5 08 часов
12.11.16 05:00 Одесса 5.0 9.0 765 94 Пн 0 05 часов
12.11.16 02:00 Одесса 5.0 9.0 764 93 Пд-З 1 02 часа
11.11.16 11:00 Одесса 7.0 9.0 764 84 Пд-З 1 23 часа
11.11.16 08:00 Одесса 5.0 9.0 763 92 Пд-З 1 20 часов
11.11.16 05:00 Одесса 6.0 10.0 761 83 Пд-З 1 17 часов
11.11.16 02:00 Одесса 8.0 10.0 761 76 Пд 2 14 часов
Количество строк
351 352 353 354 355 356 357 358 359 360
Page 351 of 579